Theta_e
315 316 318 317 317 304 310 311 306 309 316 313 308 309 308 308 305 303 311 309 312 317 316 318 319 319 321 322 321 320 326 325 335 334 334 333 333 334 336 337 339 347 346 347 348 350 349 348 351 352 353 353 352 351 350 352 352 352 350 350 349 350 351
316 318 318 318 317 316 313 306 310 315 317 315 310 302 307 303 299 303 306 304 306 307 304 321 317 317 317 319 319 319 325 326 326 330 337 338 341 343 343 340 343 346 346 350 347 350 350 351 350 352 354 353 353 351 350 351 351 348 349 348 349 348 349
315 318 316 314 318 318 312 311 318 308 303 303 311 307 298 298 299 301 305 307 307 308 309 313 316 314 316 320 323 321 320 321 326 326 335 339 343 340 344 346 345 343 348 348 348 348 348 350 353 353 354 352 351 350 349 348 349 349 349 346 349 351 351
315 315 313 305 309 316 317 317 314 316 311 308 307 306 307 306 299 300 301 304 303 313 313 314 314 318 320 319 321 319 320 322 325 328 329 337 337 337 339 337 343 343 344 345 344 348 347 349 351 350 350 348 346 346 348 348 348 350 350 350 351 350 349
314 307 310 308 310 308 309 310 308 311 310 314 311 310 306 304 302 301 300 299 307 315 318 317 318 320 322 319 320 325 324 324 322 328 330 337 343 342 339 343 345 342 340 342 347 348 351 353 351 347 346 346 346 345 344 344 347 347 347 348 349 349 349
308 310 314 313 313 313 311 309 308 310 308 306 303 302 310 308 303 298 300 300 308 315 319 322 319 320 318 320 320 326 325 321 331 334 331 337 341 341 340 337 341 338 341 348 346 346 348 347 345 343 345 347 346 343 341 341 342 342 342 347 349 348 349
308 312 316 317 316 316 314 312 310 312 311 311 306 298 303 308 307 309 308 303 305 322 322 322 322 320 320 321 321 322 323 327 326 329 325 340 345 344 339 341 341 340 344 347 348 349 347 346 345 344 344 345 345 342 341 342 342 342 342 343 347 350 348
313 315 317 317 316 315 312 313 314 311 308 309 308 307 311 306 307 304 304 303 306 318 333 324 322 325 320 327 322 321 321 325 329 328 330 343 348 347 343 341 342 341 343 348 349 349 349 348 347 344 345 347 344 339 337 339 340 342 342 343 343 348 348
307 309 312 312 315 314 310 310 312 312 312 312 312 312 318 307 307 306 304 298 308 319 328 327 323 320 320 320 321 324 325 327 325 332 340 337 351 347 347 347 346 345 344 345 348 347 347 346 345 344 343 346 344 342 338 339 339 341 342 344 343 344 344
297 297 298 301 305 308 310 312 311 312 311 311 309 305 311 301 311 314 305 305 312 319 326 320 319 321 322 321 321 322 329 332 326 326 330 350 353 351 350 350 351 348 348 348 349 349 347 346 346 346 346 345 343 342 341 342 341 341 342 340 344 343 341
304 306 312 313 313 311 306 309 310 310 313 313 312 314 311 303 305 305 307 313 312 314 316 317 318 322 319 319 323 325 324 329 337 338 341 344 353 352 350 355 350 352 352 350 348 349 349 347 347 348 345 345 343 346 345 343 342 342 341 339 342 340 340
312 311 315 312 311 309 311 309 309 311 311 312 310 308 305 317 312 301 310 314 312 312 316 318 321 322 327 330 331 323 327 330 329 336 341 344 336 350 353 353 350 349 351 349 348 348 348 347 346 350 348 347 346 347 343 340 340 342 340 343 342 342 342
311 311 311 312 312 311 310 311 311 310 311 310 308 311 312 318 308 304 316 317 314 315 315 317 321 328 331 320 323 325 327 326 337 342 338 332 333 341 350 355 351 349 352 349 347 346 346 345 345 348 347 347 349 345 342 350 341 344 344 344 342 341 344
310 310 310 312 310 310 311 311 311 311 311 310 310 310 310 311 317 316 321 320 316 314 316 318 321 328 324 325 327 329 327 323 337 335 333 325 332 334 345 347 350 354 350 352 352 348 346 346 347 347 347 347 346 342 343 341 347 347 344 344 343 343 343
308 310 312 312 311 310 309 311 311 311 311 311 311 310 310 312 312 312 312 321 318 319 329 325 325 338 328 328 322 321 331 327 323 325 324 330 330 332 338 350 349 348 348 348 351 351 348 347 349 348 348 346 343 337 335 338 343 343 342 345 345 345 345
306 309 309 310 311 310 309 309 310 311 310 309 310 310 312 311 313 317 314 314 313 318 323 321 326 327 328 323 326 328 328 324 327 331 329 329 329 335 340 340 348 349 348 351 350 349 348 348 350 349 347 344 340 337 338 339 339 341 342 345 344 346 346
304 309 310 309 310 308 305 306 308 310 311 312 312 313 315 315 314 316 311 310 319 326 326 322 323 319 324 325 324 327 332 335 330 332 332 332 334 340 345 350 350 351 349 352 352 350 348 348 348 347 347 340 337 338 341 342 342 338 339 343 345 347 347
305 308 309 310 306 299 301 314 315 314 311 311 310 310 312 315 320 315 317 320 323 321 320 319 320 321 325 329 334 334 332 330 335 330 330 329 329 333 335 338 343 353 353 350 354 356 346 347 348 349 344 339 340 339 339 338 337 337 341 343 346 346 346
304 308 309 303 298 300 314 316 316 316 315 314 312 312 314 314 325 320 316 317 320 324 321 323 326 329 330 327 328 324 323 337 332 333 328 336 336 336 337 342 339 356 355 355 355 347 346 347 345 343 340 339 338 339 338 337 335 337 341 341 344 345 345
308 305 304 297 298 312 313 315 317 318 316 315 314 312 315 316 315 323 317 318 319 323 323 322 325 325 324 325 335 337 328 326 326 322 325 328 329 331 337 344 347 357 356 357 351 348 348 348 348 344 338 337 335 335 336 333 333 337 343 344 343 344 344
302 303 303 303 317 313 312 312 313 314 314 315 313 307 313 319 319 318 318 319 320 320 321 323 324 326 322 322 325 324 322 329 326 324 327 326 328 332 345 338 344 362 360 358 353 352 351 350 350 342 338 337 335 332 333 331 332 338 342 343 343 343 343
310 303 302 303 303 301 306 318 318 320 320 319 319 316 311 321 319 320 320 322 325 323 320 323 324 326 318 316 317 324 324 324 327 328 331 329 332 334 337 348 347 363 362 362 356 353 352 352 350 344 340 336 334 332 331 331 335 339 339 339 341 343 343
307 304 301 301 299 305 314 316 318 319 321 320 319 313 307 318 320 321 319 319 323 321 320 323 326 318 312 313 320 326 325 326 327 328 329 328 329 335 339 343 346 350 361 363 358 358 354 351 349 342 338 338 335 334 335 335 337 337 339 341 342 343 344
307 305 302 300 306 305 315 315 317 319 321 320 316 302 304 320 321 320 321 318 319 321 327 322 322 318 313 315 322 322 323 324 326 333 340 336 335 340 345 345 353 363 364 364 355 352 348 348 342 336 340 337 335 336 336 335 335 338 340 343 345 346 345
305 304 304 306 309 319 319 316 318 318 320 317 306 299 314 323 326 324 322 320 321 325 325 322 316 325 325 328 329 325 325 324 325 330 333 334 333 335 334 341 354 358 360 359 352 350 349 343 335 338 336 334 332 334 338 340 340 343 346 348 347 346 348
305 306 303 303 308 320 317 320 319 320 314 304 304 319 328 325 323 325 321 320 322 324 326 326 326 324 324 324 323 325 324 324 328 330 331 331 332 332 339 353 354 355 352 357 350 346 343 334 337 336 335 334 335 341 343 342 347 354 354 354 350 349 347
307 307 305 301 295 320 319 317 317 322 314 319 322 324 324 321 325 322 323 321 325 323 326 324 328 326 323 324 324 325 326 331 336 338 333 337 335 337 351 353 353 348 341 339 343 340 334 335 335 335 337 339 343 348 346 351 356 358 357 356 355 353 349
305 303 300 300 311 318 321 321 313 317 323 326 329 325 322 323 323 323 323 327 327 326 330 327 325 326 325 329 331 331 328 330 335 336 341 343 343 342 346 347 346 337 337 337 339 342 336 336 335 337 338 345 347 349 344 352 349 345 345 346 346 349 351
311 309 312 318 322 321 321 322 321 325 325 326 325 325 322 323 325 329 325 329 327 328 331 330 330 326 326 328 326 326 326 327 332 334 337 340 340 340 342 346 346 341 338 339 340 338 340 347 352 354 351 348 347 348 348 350 345 345 345 345 342 339 338
319 320 321 320 322 322 321 321 323 322 322 324 326 325 325 326 328 328 325 326 327 328 331 326 328 328 328 328 326 326 326 328 338 344 342 341 342 339 339 344 343 340 340 340 341 344 342 345 352 351 350 350 349 347 349 347 347 345 343 342 338 337 338
310 305 322 318 318 320 320 318 321 321 323 323 325 326 326 325 324 324 325 327 328 327 330 329 330 325 323 324 327 333 334 340 340 339 339 339 339 338 335 337 340 345 337 335 337 339 343 343 341 336 337 340 346 348 346 346 343 345 340 337 336 337 337
310 313 319 317 318 322 321 319 319 318 321 322 323 324 326 327 327 327 327 326 325 325 323 330 331 327 324 327 335 337 336 337 338 338 339 339 341 345 344 343 343 339 340 338 339 340 340 339 338 336 335 335 338 340 337 337 341 342 340 336 336 334 334
315 319 321 322 321 319 319 319 321 321 322 322 323 323 323 323 323 324 325 326 325 324 324 331 333 334 335 334 337 336 337 336 337 337 335 335 335 341 339 339 339 338 339 338 342 341 341 341 339 339 337 333 330 337 340 339 341 343 341 340 338 337 336
310 312 315 319 314 315 316 317 319 321 323 324 323 322 321 322 322 323 322 324 327 328 330 331 336 334 336 334 334 333 336 337 335 335 335 334 335 341 341 342 343 340 340 343 344 342 341 342 340 339 338 337 332 326 334 337 339 343 342 338 335 331 332
307 313 315 320 321 319 318 318 320 322 323 324 321 321 321 321 322 322 322 322 325 328 331 333 334 338 335 334 336 335 336 340 341 341 339 338 338 339 339 340 341 342 344 343 342 341 341 342 339 337 337 333 337 333 339 340 337 340 338 338 335 329 330
311 313 314 316 316 313 316 319 320 321 325 323 320 321 322 322 322 321 321 322 323 326 329 330 335 334 336 334 333 334 336 337 340 339 337 338 336 334 336 338 340 342 341 339 338 337 340 339 338 340 331 333 339 333 338 336 337 341 336 338 336 331 328
309 313 313 314 314 315 317 318 319 319 322 323 320 319 320 320 320 321 321 323 323 322 325 326 329 335 334 331 334 335 335 335 337 337 337 334 332 329 329 336 338 340 340 339 339 338 338 339 336 335 335 333 335 332 333 333 335 336 336 335 331 330 332
Wind_Speed
19 16 12 12 13 11 13 11 13 13 9 13 10 8 11 12 7 6 5 6 6 4 9 8 11 8 7 4 5 7 2 9 7 10 8 12 14 11 11 13 14 13 15 14 14 14 14 15 14 13 12 12 12 11 12 11 11 10 9 7 7 5 5
15 17 16 14 16 14 9 12 11 11 14 9 6 8 4 9 9 6 10 11 8 8 5 5 12 12 8 8 7 5 5 6 9 10 11 9 8 4 5 13 13 15 15 14 15 14 17 16 16 13 13 12 11 12 12 12 12 10 9 8 6 6 5
16 17 16 17 13 19 14 11 10 11 11 14 6 3 5 6 8 6 7 8 9 5 4 4 8 12 10 11 9 7 8 8 6 8 13 16 12 10 7 4 6 13 13 16 15 17 17 16 14 13 13 14 12 11 11 12 12 11 10 8 6 6 5
17 15 14 14 12 12 17 14 9 11 11 7 5 7 6 5 6 6 9 10 7 6 4 9 16 12 13 5 3 9 5 3 9 7 6 16 15 14 12 13 11 14 17 20 21 19 20 18 16 15 16 16 18 15 12 11 10 9 9 8 8 6 6
16 14 12 14 13 13 12 11 11 7 8 5 6 8 9 8 7 6 5 5 1 4 5 14 12 6 6 7 2 2 4 3 5 11 7 8 13 13 14 14 11 14 16 19 18 17 17 18 16 17 18 18 17 15 15 14 12 12 11 9 8 7 6
14 13 15 16 17 15 12 10 10 11 11 11 9 9 9 8 6 3 5 6 5 4 9 7 8 8 8 8 4 6 5 10 4 5 9 9 11 14 14 16 16 19 14 17 19 17 15 16 18 19 17 17 17 16 15 14 15 13 13 10 7 7 5
14 17 16 18 18 16 16 13 11 10 8 6 7 5 8 7 9 10 6 7 5 2 6 8 6 6 7 10 7 2 1 4 3 5 3 7 6 11 14 17 18 19 16 16 16 16 16 17 16 16 15 17 16 15 14 13 13 14 13 12 8 7 6
14 16 13 15 18 17 15 14 14 12 13 12 10 9 5 6 8 8 4 5 6 4 5 5 11 6 1 3 4 1 5 5 2 3 3 3 8 10 10 11 11 14 15 15 13 14 14 14 13 16 13 14 14 13 14 14 15 14 12 12 11 7 7
7 9 12 13 15 15 12 12 14 16 15 16 15 10 4 7 8 8 4 8 5 3 6 6 2 4 2 4 11 7 4 6 3 2 6 3 8 13 11 9 11 17 16 15 14 14 15 14 13 13 13 15 14 13 14 15 14 13 10 11 12 11 10
11 10 10 12 13 15 12 16 17 21 21 19 12 10 6 6 4 7 6 6 7 5 4 6 3 4 2 3 9 5 7 6 5 2 4 3 6 7 8 11 10 13 13 14 12 14 14 15 15 13 13 14 15 13 13 14 11 11 10 10 12 12 12
10 11 7 11 13 12 15 17 19 17 16 16 15 6 5 6 4 7 4 6 6 9 8 3 4 5 7 8 8 5 0 2 6 8 3 2 5 9 7 8 10 9 9 13 15 15 14 15 14 12 14 14 14 11 11 11 7 9 10 9 7 10 10
15 13 10 14 15 16 16 17 16 18 18 14 14 11 10 6 6 7 6 14 14 10 11 8 9 8 2 2 3 1 3 5 7 2 6 5 4 7 9 10 12 12 13 14 15 16 16 14 13 10 12 12 12 10 11 13 15 10 10 9 9 7 7
19 20 20 14 11 13 12 12 15 17 18 20 20 10 14 8 7 8 7 12 15 12 13 13 11 4 4 4 3 1 4 5 2 3 4 7 8 6 10 7 10 11 10 13 15 15 16 15 15 14 13 12 9 10 9 7 9 9 7 8 9 8 6
16 18 21 21 21 17 18 19 18 18 19 22 22 20 19 16 8 9 9 9 10 9 9 8 6 3 4 4 2 3 5 8 5 6 6 10 6 10 11 12 10 8 11 10 13 16 15 17 16 15 14 12 12 11 9 10 10 7 6 5 7 7 7
17 21 24 23 20 18 18 17 20 22 22 21 19 18 20 19 17 18 16 10 6 6 4 7 5 5 2 4 5 6 4 5 9 9 10 7 9 9 11 13 13 13 13 13 12 13 15 16 16 15 13 12 12 13 12 10 10 8 6 6 8 8 7
14 16 15 12 16 20 21 20 21 21 20 18 14 14 13 14 10 9 6 4 6 6 9 9 3 5 5 2 3 5 7 9 7 6 7 9 11 9 9 13 13 14 15 14 14 14 15 15 16 14 13 13 12 12 11 9 7 5 3 9 10 8 7
12 13 17 21 19 18 20 19 20 21 17 15 15 16 16 14 12 3 3 5 4 3 1 2 4 8 6 8 8 4 2 3 4 6 8 10 8 5 5 4 12 15 15 13 12 15 14 12 13 15 14 10 11 12 9 8 6 7 13 10 9 9 8
8 14 18 13 8 11 11 8 12 12 14 15 18 17 17 15 5 4 3 4 8 6 5 2 3 4 3 4 5 4 3 3 5 7 8 9 9 10 8 8 7 13 11 12 9 10 10 3 2 6 4 8 9 9 10 9 11 9 9 7 9 10 9
10 9 10 11 15 12 7 10 12 16 16 16 17 19 17 13 1 3 6 6 5 3 1 6 4 2 4 4 7 8 9 4 5 5 7 6 7 7 8 6 8 8 13 12 11 13 12 12 13 13 11 10 10 7 6 7 5 12 10 9 8 9 10
8 9 9 10 12 9 13 10 10 14 18 17 14 14 14 7 2 7 6 5 5 3 3 2 1 2 6 5 2 3 7 8 8 9 7 8 9 9 7 6 7 6 14 13 15 14 12 12 15 15 13 12 11 12 8 3 10 12 10 10 11 10 10
12 9 10 14 2 7 10 11 14 9 8 7 7 9 8 10 8 5 4 0 3 6 8 7 2 4 1 1 3 9 13 9 12 9 9 9 9 6 5 7 7 4 10 13 14 12 13 14 15 14 14 13 15 9 8 12 14 13 12 11 11 11 10
5 10 12 11 10 10 9 6 8 8 11 12 12 8 10 7 9 6 6 6 6 8 2 4 4 4 1 5 6 8 12 12 9 6 6 8 6 5 4 2 5 4 5 7 15 15 17 15 14 14 15 17 14 13 13 12 15 13 11 10 9 9 9
9 11 10 9 10 6 3 7 10 13 10 11 11 8 10 1 5 7 10 7 4 3 3 3 5 7 7 5 6 6 11 7 1 6 7 7 6 1 2 4 5 6 4 5 14 12 13 11 9 13 12 14 11 11 11 13 13 12 11 11 10 9 9
9 8 8 11 5 7 6 5 12 13 8 6 9 11 8 2 4 4 7 10 8 3 4 6 5 3 5 4 4 5 8 7 10 3 4 1 4 3 2 3 3 4 4 8 13 12 14 13 20 15 9 7 7 7 10 12 12 11 12 10 10 9 8
12 13 11 9 7 3 7 8 8 4 9 11 10 9 3 4 7 1 1 3 2 5 3 3 4 3 4 3 6 10 6 9 10 3 3 1 1 2 2 4 2 4 5 8 12 10 8 14 16 14 11 10 8 11 13 10 8 7 8 8 8 7 7
12 10 13 11 7 1 6 5 9 5 8 10 5 3 3 5 7 5 2 1 4 4 3 1 1 4 3 5 9 10 10 9 11 2 5 4 4 4 5 7 7 5 7 8 13 13 13 11 9 7 6 8 10 12 9 8 5 3 4 5 6 6 7
10 9 10 7 7 2 9 5 8 11 6 2 1 1 2 3 3 2 2 3 4 4 2 1 4 7 10 11 12 13 12 9 7 5 1 1 3 3 5 7 7 7 13 14 7 11 12 10 10 9 8 10 10 6 5 3 2 2 2 2 3 4 4
7 9 6 1 5 3 6 8 2 5 7 6 3 2 5 7 4 7 5 2 4 5 6 6 7 8 9 9 6 8 12 4 5 2 5 5 8 12 6 6 8 15 8 9 4 6 9 9 7 9 13 10 6 3 3 7 9 9 9 8 8 5 2
5 2 4 3 5 5 8 8 7 4 5 5 4 5 5 5 9 10 4 6 6 5 6 6 6 7 7 9 10 11 13 9 7 5 3 5 4 8 2 4 5 13 10 9 7 9 8 7 5 3 3 5 6 6 4 5 7 7 5 4 3 4 4
2 2 3 5 4 5 8 4 4 6 9 9 8 8 8 6 5 1 4 6 7 7 7 7 7 8 9 9 9 10 12 13 5 7 7 7 8 8 5 3 6 10 12 10 7 9 10 8 4 6 6 8 9 5 4 5 5 6 6 6 6 6 7
3 1 8 3 4 2 10 5 9 10 10 9 8 7 5 6 3 4 3 3 4 6 5 7 6 9 10 11 8 7 8 8 11 10 11 8 7 6 4 6 4 3 10 9 10 7 8 6 6 10 11 9 6 6 5 6 4 3 5 5 5 5 4
3 2 8 10 5 8 8 6 8 8 7 9 8 7 5 5 5 6 8 7 7 7 8 6 6 8 11 8 6 10 9 7 10 10 11 9 5 3 5 5 4 5 6 11 9 7 7 7 6 8 4 1 6 4 3 7 6 7 6 5 3 3 7
1 1 13 11 9 10 9 9 9 7 5 5 8 6 6 7 8 8 7 8 9 8 9 9 9 10 9 11 7 10 9 7 6 7 9 9 6 5 8 1 6 6 7 8 7 9 9 7 7 6 7 5 2 2 4 4 4 4 6 8 10 9 6
9 6 6 10 3 4 3 7 7 6 6 5 5 5 6 7 7 8 9 9 10 11 9 7 6 6 6 6 4 9 8 8 7 5 8 11 13 9 7 8 10 13 7 6 8 9 7 7 6 5 5 6 4 6 8 6 5 7 5 4 5 6 5
6 1 8 6 5 7 6 5 4 4 4 4 3 5 6 7 8 8 9 8 8 9 7 6 4 4 6 5 4 7 8 6 7 7 8 8 6 8 10 11 10 10 10 10 9 8 7 5 6 6 5 5 4 6 6 5 4 3 2 2 2 4 4
10 7 6 6 5 6 3 5 4 4 3 2 3 4 7 8 9 9 9 7 7 6 5 3 5 4 3 6 5 6 9 8 6 5 6 6 8 9 7 6 6 7 8 9 9 9 5 5 4 3 5 7 3 6 6 4 4 4 2 2 2 3 3
7 7 6 5 7 7 7 6 6 5 5 5 5 7 8 9 9 10 10 8 7 9 6 5 2 0 4 2 4 5 8 9 8 9 8 7 7 7 7 9 10 9 8 7 7 6 7 6 5 4 5 4 3 5 2 3 4 2 3 3 4 4 1
Wind_Direction
171 222 208 221 168 214 170 205 225 248 223 197 223 248 276 286 271 252 293 235 225 250 277 219 187 196 194 177 269 261 176 165 150 142 172 179 188 187 181 186 181 169 170 177 169 167 163 168 170 173 174 165 168 165 165 168 170 166 169 177 162 184 163
184 201 226 232 162 243 174 200 214 229 274 271 223 246 207 224 247 236 209 235 230 171 251 203 176 168 164 179 194 224 219 153 167 159 158 171 160 184 180 180 179 170 173 172 169 168 169 172 173 175 172 162 169 167 171 170 169 170 173 164 172 164 175
186 191 217 238 201 201 239 204 169 220 186 226 185 348 276 270 239 267 233 249 261 212 217 145 143 151 174 185 164 194 191 187 187 181 158 165 167 186 136 94 206 168 172 171 172 176 176 172 175 174 169 162 168 169 175 172 172 170 170 163 170 162 173
180 189 201 220 216 210 230 253 241 200 272 243 198 190 263 271 254 215 241 232 247 198 213 168 132 173 186 132 113 166 170 206 170 178 182 157 175 182 143 174 206 188 174 182 185 181 179 177 176 177 171 172 180 176 174 172 169 169 168 166 164 166 171
183 194 181 222 208 207 215 229 255 211 225 185 221 160 211 219 243 235 262 230 177 42 71 123 144 118 78 105 217 152 136 281 258 159 173 150 164 168 161 159 181 195 190 182 178 176 176 175 177 183 185 184 183 177 176 177 169 173 173 170 163 169 171
213 200 180 215 220 204 216 204 234 240 210 201 188 211 175 234 248 268 256 254 75 54 73 84 91 100 153 179 151 345 160 173 248 358 149 163 165 180 169 165 184 194 195 177 186 186 182 174 183 188 186 184 186 181 179 181 178 180 177 170 167 163 177
218 218 190 193 238 231 216 204 219 235 282 250 225 243 165 201 235 243 239 269 80 19 58 90 99 121 76 41 79 193 110 76 96 163 252 165 175 161 183 177 178 198 190 180 181 174 178 182 184 185 193 187 186 179 180 182 181 179 178 173 168 159 174
222 218 209 194 197 248 245 215 214 215 234 237 236 229 232 235 219 223 221 241 127 87 31 105 92 76 115 165 91 228 300 54 143 158 73 14 116 126 162 210 161 170 173 177 182 183 182 190 188 188 186 179 183 184 191 186 188 179 182 169 169 158 168
204 219 183 226 193 197 249 248 202 213 220 231 249 249 149 235 243 249 197 228 136 87 103 92 113 155 310 134 152 180 194 147 237 341 134 163 141 153 179 206 184 178 176 182 185 177 184 188 193 194 190 178 179 188 193 188 186 176 191 168 163 166 181
198 200 204 207 217 197 202 245 239 199 213 208 217 230 202 229 194 238 241 223 95 141 116 101 172 93 136 271 318 321 162 149 192 152 291 188 156 157 171 189 182 162 166 179 183 183 187 192 196 199 191 175 182 189 190 182 174 175 182 159 158 169 183
220 207 212 212 243 204 206 207 238 252 235 226 225 213 205 199 164 212 188 246 166 175 191 216 250 161 206 173 196 211 208 223 173 163 170 265 151 157 172 161 172 166 174 179 187 190 193 193 197 195 185 184 186 182 173 148 172 192 159 150 160 167 188
255 260 213 210 221 250 205 208 215 232 256 251 236 233 233 148 152 209 177 194 226 192 205 191 218 206 242 15 62 167 301 298 300 299 162 194 193 170 167 156 172 180 187 189 185 191 195 198 201 200 183 175 175 170 166 153 191 166 150 150 160 179 179
225 246 261 260 229 226 247 236 233 226 223 248 258 245 241 230 218 231 175 194 207 215 212 191 209 250 217 207 190 31 15 330 287 219 222 188 195 196 149 169 174 198 202 188 192 192 196 196 200 191 185 174 163 156 151 137 129 129 140 155 160 170 169
216 223 244 247 247 250 226 224 236 242 234 223 226 249 258 244 221 233 148 175 214 225 235 251 264 205 297 294 295 352 299 275 260 264 268 281 233 194 172 183 195 192 204 201 193 193 191 193 190 183 178 172 156 144 125 131 136 141 135 169 160 171 173
231 224 215 226 242 258 263 235 226 233 231 237 235 231 238 251 254 236 233 150 199 214 226 246 256 37 332 54 328 274 291 313 296 296 297 283 269 217 188 179 187 196 204 213 208 185 185 184 181 178 173 161 149 134 143 135 139 156 169 179 171 171 173
242 247 254 230 233 241 251 259 249 239 243 239 229 234 226 232 230 238 267 205 198 211 195 220 176 217 194 161 222 235 227 243 244 258 248 246 261 275 200 196 184 188 197 198 199 185 181 182 178 175 166 161 139 145 144 150 148 122 190 193 175 168 177
237 240 241 237 238 242 235 235 244 248 239 240 246 246 244 240 249 193 215 265 305 351 48 291 239 250 191 191 205 223 308 16 338 312 309 306 304 299 323 257 194 187 188 182 184 181 184 183 182 178 162 132 144 148 146 132 129 149 215 183 170 170 180
238 241 254 271 286 259 249 273 286 301 275 248 245 246 248 243 178 202 162 83 43 23 360 355 346 288 322 355 19 6 309 292 258 255 264 274 275 274 261 260 238 186 179 171 170 127 120 112 19 0 26 132 132 135 134 148 123 219 215 188 169 175 179
248 248 258 259 250 250 272 282 286 280 283 282 277 273 274 286 115 148 147 137 175 192 35 259 263 25 352 290 267 271 275 284 289 289 287 275 275 271 270 263 266 188 184 158 133 148 165 171 159 168 181 155 136 114 84 79 151 230 206 186 186 175 186
249 251 241 245 245 263 264 301 297 272 268 277 305 304 315 297 220 117 123 161 250 298 268 232 199 243 248 245 240 279 266 263 262 264 264 257 246 239 235 252 250 202 177 162 158 171 173 166 172 172 163 146 103 71 54 147 227 228 202 189 185 182 186
243 230 237 251 7 283 264 260 260 263 261 270 273 291 293 318 329 341 5 108 218 230 216 222 220 240 204 334 312 284 273 236 227 243 258 264 274 265 204 234 248 227 176 172 160 155 167 174 184 160 147 111 91 108 175 210 224 216 191 187 184 183 190
276 253 244 243 227 242 237 240 267 287 280 270 266 267 274 274 282 301 282 255 209 202 224 60 346 27 0 278 278 286 285 227 175 205 261 286 289 318 302 232 254 195 177 151 151 168 174 180 178 138 131 118 145 165 192 207 212 196 189 190 190 188 192
215 229 248 248 255 247 279 218 222 247 259 267 272 244 256 205 303 267 258 254 162 208 204 159 210 247 266 278 280 27 331 9 193 207 215 246 260 188 285 248 227 208 180 156 155 157 143 151 126 70 102 135 147 179 201 209 197 189 193 192 190 192 191
236 239 236 245 227 259 226 205 208 217 214 273 299 270 242 38 339 260 231 246 238 193 199 215 251 210 239 245 297 359 314 301 269 247 99 307 348 84 293 278 227 132 164 129 145 144 151 146 100 127 126 136 170 198 213 214 202 193 189 188 183 185 188
229 233 246 259 242 253 4 305 301 230 230 200 200 229 359 300 247 182 43 304 123 107 98 134 252 211 225 244 241 268 281 304 300 141 131 104 21 336 273 258 132 165 179 155 142 141 117 97 123 141 148 142 184 210 217 211 208 191 179 175 176 179 175
243 233 240 239 254 73 275 292 274 285 219 234 213 29 232 352 14 87 284 357 124 165 187 327 287 331 347 275 289 325 322 301 294 184 184 209 201 195 234 144 149 170 176 138 127 112 100 109 81 74 142 175 208 216 196 203 204 167 135 144 165 168 173
244 243 249 234 243 54 274 357 290 19 331 41 320 121 51 197 325 36 97 295 36 12 344 321 347 324 323 335 334 334 326 353 44 344 34 263 166 244 119 127 141 87 51 3 32 113 107 121 130 168 205 223 209 186 186 174 165 111 70 97 121 153 167
274 250 233 319 4 183 60 36 30 88 117 189 101 224 60 328 19 6 1 39 356 16 6 346 326 313 312 308 308 320 310 318 170 101 36 50 37 55 59 74 77 82 112 119 286 20 95 120 162 196 211 192 175 161 70 47 51 47 38 27 21 11 355
342 30 102 81 353 19 98 99 93 117 136 118 113 68 83 17 21 7 336 356 358 357 338 323 306 296 288 302 318 317 305 280 197 166 134 98 70 85 64 80 134 127 143 147 153 146 185 168 189 203 183 114 84 68 60 58 67 78 79 70 34 11 355
211 41 66 85 40 1 20 43 97 53 64 57 43 49 54 66 49 316 330 347 341 340 346 322 319 312 317 305 299 305 300 309 353 87 78 44 43 64 48 261 183 128 132 154 140 81 57 6 45 74 63 64 70 68 71 62 59 62 55 49 34 14 357
248 219 268 81 95 352 52 21 53 55 47 55 53 51 46 41 15 355 342 317 328 309 304 282 282 287 297 292 287 286 317 41 72 60 49 38 30 28 44 258 234 140 148 133 104 105 114 109 51 50 47 37 45 77 107 106 98 59 55 58 52 13 8
253 339 187 210 211 104 77 55 59 60 46 50 41 26 23 28 18 13 359 354 309 319 298 303 300 304 292 321 44 77 89 77 50 53 49 31 24 346 86 254 165 154 119 112 133 138 117 103 105 88 77 197 212 198 175 130 137 142 142 125 111 209 216
225 6 5 344 142 88 70 76 65 46 32 18 45 20 20 23 19 11 347 354 337 313 319 347 359 358 354 97 107 84 73 75 75 74 91 69 6 305 100 166 118 97 115 113 122 127 123 129 119 138 165 198 44 203 152 130 122 121 147 173 174 190 194
347 351 21 356 74 57 14 51 46 40 40 3 30 34 25 31 9 9 359 1 354 340 353 349 37 50 33 41 70 114 108 110 123 151 132 149 180 165 136 127 130 131 123 107 119 110 110 111 120 124 88 60 19 33 76 103 132 156 163 177 188 208 210
181 117 42 15 75 115 45 36 41 4 41 16 15 29 22 14 5 6 4 357 355 348 350 23 33 64 81 51 70 109 128 143 147 158 163 146 133 114 103 99 84 77 104 118 113 102 91 90 98 108 119 105 70 85 65 56 73 84 127 160 208 237 219
78 55 60 34 6 12 326 10 352 350 66 354 347 348 11 5 347 352 350 345 336 325 319 336 35 360 22 118 134 130 134 153 145 159 143 122 107 99 103 118 125 132 131 122 120 119 119 110 107 108 113 108 91 92 100 86 78 97 137 128 214 252 270
78 69 60 17 338 313 321 326 336 316 287 60 14 345 347 349 332 339 320 320 312 296 289 278 224 211 279 249 178 178 166 169 174 168 149 144 146 146 164 146 139 137 124 115 111 123 134 137 125 111 86 86 98 71 77 117 116 123 137 211 241 250 173